New Orleans, LA

7:22 AM CDT on September 29, 2016 (GMT -0500)
Lakefront

Weather History for KNEW - December, 2012

Change the Weather History Date:

Saturday, December 8, 2012

  Actual Average Record
Temperature  
Mean Temperature 67 °F 57 °F  
Max Temperature 77 °F 66 °F 82 °F (1978)
Min Temperature 56 °F 48 °F 27 °F (1984)
Degree Days  
Heating Degree Days 0 9  
Month to date heating degree days 3 68  
Since 1 July heating degree days 192 232  
Cooling Degree Days 2 1  
Month to date cooling degree days 16 8  
Year to date cooling degree days 3390 2986  
Growing Degree Days 16 (Base 50)    
Moisture  
Dew Point 62 °F    
Average Humidity 75    
Maximum Humidity 100    
Minimum Humidity 49    
Precipitation  
Precipitation 0.00 in 0.17 in 4.29 in (2009)
Month to date precipitation 2.86 1.33  
Year to date precipitation 65.99 58.54  
Snow  
Snow 0.00 in - - ()
Month to date snowfall 0.0  
Since 1 July snowfall 0.0  
Snow Depth 0.00 in    
Sea Level Pressure  
Sea Level Pressure 29.95 in    
Wind  
Wind Speed 4 mph (South)    
Max Wind Speed 12 mph    
Max Gust Speed 15 mph    
Visibility 6 miles    
Events Fog    
T = Trace of Precipitation, MM = Missing Value Source: NWS Daily Summary

Daily Weather History Graph

Daily Weather History Graph

Search for Another Location

Airport or City:

Trip Planner

Search our weather history database for the weather conditions in past years. The results will help you decide how hot, cold, wet, or windy it might be!

Date:

Astronomy

Dec. 08, 2012 Rise Set
Actual Time 6:44 AM CST 5:00 PM CST
Civil Twilight 6:17 AM CST 5:26 PM CST
Nautical Twilight 5:48 AM CST 5:56 PM CST
Astronomical Twilight 5:19 AM CST 6:25 PM CST
Moon 1:27 AM CST (12/8) 1:14 PM CST (12/8)
Length of Visible Light 11h 08m
Length of Day
10h 16m
Waning Crescent, 28% of the Moon is Illuminated
Dec 8
Waning Crescent
Dec 13
New
Dec 19
First Quarter
Dec 28
Full
Jan 4
Last Quarter

Hourly Weather History & Observations

Time (CST) Temp. Dew Point Humidity Pressure Visibility Wind Dir Wind Speed Gust Speed Precip Events Conditions
12:53 AM 64.0 °F 63.0 °F 96% 29.91 in 0.2 mi SE 5.8 mph - N/A Fog Fog
1:16 AM 64.4 °F 64.4 °F 100% 29.93 in 0.5 mi South 4.6 mph - N/A Fog Fog
1:41 AM 64.4 °F 64.4 °F 100% 29.93 in 0.2 mi South 3.5 mph - N/A Fog Fog
1:53 AM 64.0 °F 63.0 °F 96% 29.91 in 0.2 mi South 3.5 mph - N/A Fog Fog
2:00 AM 64.4 °F 62.6 °F 94% 29.92 in 0.2 mi South 4.6 mph - N/A Fog Fog
2:11 AM 64.4 °F 62.6 °F 94% 29.93 in 0.2 mi South 4.6 mph - N/A Fog Fog
2:30 AM 64.4 °F 62.6 °F 94% 29.93 in 0.2 mi Calm Calm - N/A Fog Fog
2:39 AM 64.4 °F 64.4 °F 100% 29.93 in 0.2 mi Calm Calm - N/A Fog Fog
2:46 AM 64.4 °F 64.4 °F 100% 29.93 in 0.8 mi Calm Calm - N/A   Mist
2:53 AM 64.0 °F 64.0 °F 100% 29.91 in 1.8 mi South 3.5 mph - 0.01 in   Overcast
2:58 AM 64.4 °F 64.4 °F 100% 29.93 in 3.0 mi SSW 3.5 mph - N/A   Overcast
3:31 AM 64.4 °F 62.6 °F 94% 29.93 in 2.5 mi Calm Calm - N/A   Overcast
3:39 AM 64.4 °F 62.6 °F 94% 29.93 in 3.0 mi Calm Calm - N/A   Overcast
3:53 AM 64.0 °F 64.0 °F 100% 29.92 in 4.0 mi Calm Calm - N/A   Overcast
4:45 AM 64.4 °F 62.6 °F 94% 29.95 in 10.0 mi Calm Calm - N/A   Overcast
4:53 AM 64.4 °F 62.6 °F 94% 29.95 in 10.0 mi NW 3.5 mph - N/A   Mostly Cloudy
5:36 AM 62.6 °F 62.6 °F 100% 29.96 in 7.0 mi SW 3.5 mph - N/A   Scattered Clouds
5:53 AM 64.0 °F 62.1 °F 93% 29.95 in 4.0 mi Calm Calm - N/A   Mostly Cloudy
6:46 AM 62.6 °F 60.8 °F 94% 29.98 in 2.5 mi Calm Calm - N/A   Mostly Cloudy
6:53 AM 62.1 °F 61.0 °F 96% 29.96 in 2.5 mi Calm Calm - N/A   Mostly Cloudy
6:59 AM 62.6 °F 60.8 °F 94% 29.98 in 3.0 mi Calm Calm - N/A   Scattered Clouds
7:53 AM 64.0 °F 60.1 °F 87% 29.97 in 7.0 mi South 3.5 mph - N/A   Clear
8:53 AM 69.1 °F 60.1 °F 73% 29.98 in 10.0 mi ESE 3.5 mph - N/A   Clear
9:53 AM 68.0 °F 60.1 °F 76% 29.99 in 9.0 mi NW 4.6 mph - N/A   Clear
10:15 AM 68.0 °F 60.1 °F 76% 29.99 in 9.0 mi NW 4.6 mph - N/A   Clear
10:53 AM 68.0 °F 62.1 °F 81% 29.98 in 10.0 mi NW 3.5 mph - N/A   Clear
11:53 AM 70.0 °F 61.0 °F 73% 29.95 in 10.0 mi NNW 5.8 mph - N/A   Clear
12:53 PM 70.0 °F 63.0 °F 78% 29.93 in 10.0 mi North 5.8 mph - N/A   Clear
1:53 PM 70.0 °F 63.0 °F 78% 29.92 in 10.0 mi North 6.9 mph - N/A   Clear
2:53 PM 69.1 °F 62.1 °F 78% 29.91 in 10.0 mi NE 5.8 mph - N/A   Clear
3:53 PM 69.1 °F 62.1 °F 78% 29.91 in 10.0 mi NE 4.6 mph - N/A   Clear
4:53 PM 68.0 °F 60.1 °F 76% 29.93 in 10.0 mi NE 4.6 mph - N/A   Clear
5:53 PM 68.0 °F 55.9 °F 65% 29.94 in 10.0 mi South 4.6 mph - N/A   Clear
6:53 PM 66.0 °F 59.0 °F 78% 29.96 in 10.0 mi South 6.9 mph - N/A   Clear
7:53 PM 66.2 °F 60.8 °F 83% 29.99 in 10.0 mi SSE 5.8 mph - N/A   Clear
8:53 PM 64.9 °F 62.1 °F 90% 29.97 in 8.0 mi South 6.9 mph - N/A   Clear
9:53 PM 64.9 °F 62.1 °F 90% 29.98 in 7.0 mi SSE 8.1 mph - N/A   Clear
10:53 PM 64.9 °F 62.1 °F 90% 29.97 in 7.0 mi South 9.2 mph - N/A   Clear
11:53 PM 64.9 °F 63.0 °F 93% 29.97 in 5.0 mi SSE 8.1 mph - N/A   Clear